Find Local Weather

World > North America > United States > Kansas

Leavenworth, Kansas Regional Weather

Lat: 39.31N, Lon: 94.92W
Wx Zone: KSZ103
Feedback
Expires:201804230700;;363799
ASUS43 KTOP 230559
RWRKS 

WEATHER ROUNDUP FOR KANSAS
NATIONAL WEATHER SERVICE GOODLAND KS
100 AM CDT MON APR 23 2018

NOTE:  "FAIR" INDICATES FEW OR NO CLOUDS BELOW 12,000 FEET WITH NO
SIGNIFICANT WEATHER AND/OR OBSTRUCTIONS TO VISIBILITY.


KSZ007>012-019>026-033>040-048>060-102>105-230700-
NORTHEAST KANSAS
  
CITY           SKY/WX    TMP DP  RH WIND       PRES   REMARKS
CONCORDIA      CLEAR     49  40  71 NW6       30.13S                  
6HR MIN TEMP:  47; 6HR MAX TEMP:  59;                                

EMPORIA        CLOUDY    53  45  74 N3        30.09R                  
6HR MIN TEMP:  53; 6HR MAX TEMP:  59;                                

LAWRENCE       CLOUDY    57  41  55 NE9       30.09F                  
6HR MIN TEMP:  57; 6HR MAX TEMP:  66;                                

MANHATTAN      CLEAR     48  42  80 CALM      30.12S                  
6HR MIN TEMP:  48; 6HR MAX TEMP:  66;                                

OLATHE IND     CLOUDY    58  35  42 NE10      30.09S                  
6HR MIN TEMP:  56; 6HR MAX TEMP:  63;                                

OLATHE EXE     CLOUDY    57  33  40 NE8       30.08S                  
6HR MIN TEMP:  56; 6HR MAX TEMP:  61;                                

SALINA         CLEAR     49  41  74 NW3       30.13S                  
6HR MIN TEMP:  49; 6HR MAX TEMP:  62;                                

TOPEKA BILLARD CLOUDY    56  44  64 N5        30.10S                  
6HR MIN TEMP:  56; 6HR MAX TEMP:  67;                                

TOPEKA FORBES  CLOUDY    54  44  69 N5        30.10R                  
6HR MIN TEMP:  54; 6HR MAX TEMP:  65;                                

$$
  

SKY/WX - Weather  TMP - Temperature  DP - Dewpoint  RH - Relative Humidity
WIND - Wind Direction/Speed PRES - Barometric Pressure